Regional Weather Roundup
Issued by NWS Little Rock, AR

Home | Current Version | Previous Version | Text Only | Print | Product List | Glossary On
Versions: 1 2 3 4 5 6 7 8 9 10 11 12 13 14 15 16 17 18 19 20 21 22 23 24 25 26 27 28 29 30 31
000
ASUS44 KLZK 191705
RWRLZK

WEATHER ROUNDUP FOR ARKANSAS
NATIONAL WEATHER SERVICE LITTLE ROCK AR
1200 PM CDT THU OCT 19 2017

NOTE: "FAIR" INDICATES FEW OR NO CLOUDS BELOW 12,000 FEET WITH NO
SIGNIFICANT WEATHER AND/OR OBSTRUCTIONS TO VISIBILITY.

ARZ001-003-010-029-191800-
NORTHWEST ARKANSAS

CITY           SKY/WX    TMP DP  RH WIND       PRES   REMARKS
FAYETTEVILLE   CLOUDY    72  54  53 SW8       30.22F
FORT SMITH     SUNNY     74  56  53 VRB5      30.21F
HARRISON       SUNNY     73  52  47 CALM      30.23F
BENTONVILLE    SUNNY     71  52  50 S12       30.24S
ROGERS         MOSUNNY   73  52  47 SW7       30.23S
SILOAM SPGS    MOSUNNY   72  53  51 SW12      30.22F
HIGHFILL       MOSUNNY   72  53  51 S12       30.22F
SPRINGDALE     SUNNY     72  54  53 SW8G17    30.24S
$$

ARZ004-005-016-191800-
NORTH CENTRAL ARKANSAS

CITY           SKY/WX    TMP DP  RH WIND       PRES   REMARKS
BATESVILLE     SUNNY     74  54  49 VRB6      30.24F
FLIPPIN        SUNNY     74  53  48 VRB3      30.23F
MTN HOME       SUNNY     74  52  46 CALM      30.22F
$$

ARZ040-041-191800-
WEST CENTRAL ARKANSAS

CITY           SKY/WX    TMP DP  RH WIND       PRES   REMARKS
MENA           PTSUNNY   73  55  53 W3        30.23S
MOUNT IDA      MOSUNNY   73  51  46 CALM      30.21
$$

ARZ009-017-025-026-028-191800-
NORTHEAST ARKANSAS

CITY           SKY/WX    TMP DP  RH WIND       PRES   REMARKS
JONESBORO      SUNNY     73  54  51 SW9       30.25F
NEWPORT        SUNNY     74  54  49 S9        30.25F
WALNUT RIDGE   SUNNY     72  53  51 S9        30.24F
BLYTHEVILLE    SUNNY     72  51  47 SW8       30.27F
$$

ARZ022-023-033-042-044-191800-
CENTRAL ARKANSAS

CITY           SKY/WX    TMP DP  RH WIND       PRES   REMARKS
LITTLE ROCK    PTSUNNY   73  56  54 S5        30.24F
JACKSONVILLE   SUNNY     73  55  51 SW6       30.23F
SEARCY         MOSUNNY   69  55  60 CALM      30.26F
HOT SPRINGS    SUNNY     74  54  49 VRB5      30.24S
RUSSELLVILLE   MOSUNNY   72  55  55 VRB5      30.22F
CLINTON        FAIR      70  55  60 CALM      30.24F
$$

ARZ036-191800-
EAST ARKANSAS

CITY           SKY/WX    TMP DP  RH WIND       PRES   REMARKS
WEST MEMPHIS   SUNNY     71  51  49 S9        30.26F
$$

ARZ050-053-066-070-073-191800-
SOUTHWEST ARKANSAS

CITY           SKY/WX    TMP DP  RH WIND       PRES   REMARKS
ARKADELPHIA    FAIR      69  56  62 N5        30.24F
CAMDEN         SUNNY     77  54  44 CALM      30.23S
TEXARKANA      MOSUNNY   74  54  49 SE5       30.22S
EL DORADO      SUNNY     75  60  59 S3        30.24S
DE QUEEN       PTSUNNY   74  58  57 VRB3      30.20F
$$

ARZ056-057-069-191800-
SOUTHEAST ARKANSAS

CITY           SKY/WX    TMP DP  RH WIND       PRES   REMARKS
PINE BLUFF     SUNNY     74  55  51 S5        30.25F
STUTTGART      SUNNY     73  53  49 VRB3      30.26F
MONTICELLO     CLOUDY    72  57  59 VRB5      30.25F

$$






USA.gov is the U.S. government's official web portal to all federal, state and local government web resources and services.